Date String (YYYY-MM-DD hh:mm:ss) UTC,Instrument flags,Ambient pressure (hPa),Sample flow (lpm),Bypass flow (lpm),Sample temperature (°C),Ambient temperature (°C),ASC tube jacket temperature (°C),LED temperature (°C),Box temperature (°C),Sample RH (%),Span deviation,Mass concentration (μg/m³),Mass concentration (μg/m³),Mass concentration (μg/m³)
DateTimeUTC,F1_M11,P_M11,Q1_M11,Q2_M11,T1_M11,T2_M11,T3_M11,T4_M11,T5_M11,U1_M11,ZSPAN_M11,X0_M11,X2_M11,X1_M11
2022-09-02 04:00:00,,0826.0,4.98,0.00,29.6,28.6,00.0,38.3,31.5,16.3,0000.0,0012.42,0006.66,0006.08
2022-09-02 04:01:00,,0826.0,5.01,0.00,29.7,28.6,00.0,38.3,31.6,16.4,0000.0,0012.66,0006.67,0006.10
2022-09-02 04:02:00,,0826.0,5.00,0.00,29.7,28.7,00.0,38.3,31.6,16.4,0000.0,0012.76,0006.69,0006.11
2022-09-02 04:03:00,,0826.0,4.99,0.00,29.7,28.8,00.0,38.4,31.7,16.3,0000.0,0012.39,0006.67,0006.09
2022-09-02 04:04:00,,0826.0,5.01,0.00,29.8,28.9,00.0,38.4,31.7,16.1,0000.0,0012.61,0006.68,0006.09
2022-09-02 04:05:00,,0826.0,4.99,0.00,29.8,28.9,00.0,38.4,31.7,16.1,0000.0,0013.00,0006.67,0006.10
2022-09-02 04:06:00,,0826.0,5.00,0.00,29.8,28.6,00.0,38.4,31.7,15.9,0000.0,0013.55,0006.68,0006.09
2022-09-02 04:07:00,,0826.0,5.01,0.00,29.8,27.4,00.0,38.4,31.6,15.9,0000.0,0013.39,0006.69,0006.10
2022-09-02 04:08:00,,0826.0,5.00,0.00,29.8,26.9,00.0,38.4,31.6,15.9,0000.0,0013.27,0006.71,0006.11
2022-09-02 04:09:00,,0826.0,5.00,0.00,29.7,27.1,00.0,38.4,31.5,15.9,0000.0,0013.77,0006.73,0006.11
2022-09-02 04:10:00,,0826.0,5.01,0.00,29.7,27.4,00.0,38.4,31.4,16.0,0000.0,0014.22,0006.78,0006.11
2022-09-02 04:11:00,,0826.0,5.00,0.00,29.7,27.7,00.0,38.4,31.4,15.9,0000.0,0014.07,0006.80,0006.12
2022-09-02 04:12:00,,0826.0,5.00,0.00,29.7,27.9,00.0,38.4,31.5,15.9,0000.0,0014.81,0006.76,0006.09
2022-09-02 04:13:00,,0825.9,4.99,0.00,29.7,28.2,00.0,38.4,31.5,15.9,0000.0,0015.29,0006.76,0006.08
2022-09-02 04:14:00,,0825.9,5.01,0.00,29.7,28.3,00.0,38.4,31.5,16.0,0000.0,0015.61,0006.77,0006.09
2022-09-02 04:15:00,,0825.9,5.01,0.00,29.7,28.5,00.0,38.4,31.6,16.0,0000.0,0016.09,0006.78,0006.09
2022-09-02 04:16:00,,0825.9,5.00,0.00,29.7,28.6,00.0,38.4,31.6,15.9,0000.0,0015.84,0006.76,0006.09
2022-09-02 04:17:00,,0825.9,4.99,0.00,29.8,28.7,00.0,38.4,31.7,15.8,0000.0,0015.22,0006.76,0006.09
2022-09-02 04:18:00,,0825.9,5.01,0.00,29.8,28.8,00.0,38.5,31.7,15.8,0000.0,0015.75,0006.78,0006.08
2022-09-02 04:19:00,,0825.8,5.00,0.00,29.8,28.9,00.0,38.5,31.8,15.9,0000.0,0015.17,0006.75,0006.06
2022-09-02 04:20:00,,0825.8,5.01,0.00,29.9,28.9,00.0,38.5,31.8,15.7,0000.0,0014.87,0006.73,0006.05
2022-09-02 04:21:00,,0825.8,4.99,0.00,29.9,27.9,00.0,38.5,31.7,15.6,0000.0,0014.38,0006.70,0006.04
2022-09-02 04:22:00,,0825.7,5.00,0.00,29.8,26.5,00.0,38.5,31.5,15.7,0000.0,0014.00,0006.65,0006.04
2022-09-02 04:23:00,,0826.0,5.01,0.00,29.7,26.2,00.0,38.4,31.4,15.8,0000.0,0013.41,0006.66,0006.06
2022-09-02 04:24:00,,0826.1,5.01,0.00,29.6,26.4,00.0,38.4,31.3,15.9,0000.0,0012.48,0006.62,0006.07
2022-09-02 04:25:00,,0826.1,4.99,0.00,29.6,26.8,00.0,38.3,31.2,15.9,0000.0,0011.89,0006.59,0006.08
2022-09-02 04:26:00,,0825.9,5.01,0.00,29.5,27.2,00.0,38.3,31.2,16.0,0000.0,0011.57,0006.61,0006.08
2022-09-02 04:27:00,,0826.0,4.99,0.00,29.5,27.5,00.0,38.3,31.3,15.9,0000.0,0011.51,0006.61,0006.07
2022-09-02 04:28:00,,0826.1,5.02,0.00,29.5,27.8,00.0,38.3,31.3,15.9,0000.0,0011.56,0006.62,0006.07
2022-09-02 04:29:00,,0826.0,4.99,0.00,29.6,28.0,00.0,38.3,31.4,15.9,0000.0,0011.35,0006.63,0006.07
2022-09-02 04:30:00,,0826.0,5.00,0.00,29.6,28.2,00.0,38.3,31.4,16.0,0000.0,0011.44,0006.66,0006.08
2022-09-02 04:31:00,,0825.9,5.01,0.00,29.6,28.3,00.0,38.3,31.5,15.9,0000.0,0011.89,0006.69,0006.08
2022-09-02 04:32:00,,0826.0,5.00,0.00,29.6,28.4,00.0,38.3,31.5,15.9,0000.0,0012.05,0006.72,0006.09
2022-09-02 04:33:00,,0826.0,4.99,0.00,29.6,28.5,00.0,38.4,31.5,15.8,0000.0,0012.04,0006.71,0006.08
2022-09-02 04:34:00,,0825.9,5.01,0.00,29.7,28.6,00.0,38.4,31.6,15.8,0000.0,0011.98,0006.70,0006.07
2022-09-02 04:35:00,,0826.0,5.00,0.00,29.7,28.7,00.0,38.4,31.6,15.6,0000.0,0012.21,0006.72,0006.07
2022-09-02 04:36:00,,0826.0,4.98,0.00,29.7,28.8,00.0,38.4,31.7,15.6,0000.0,0013.17,0006.74,0006.05
2022-09-02 04:37:00,,0826.1,5.00,0.00,29.8,28.8,00.0,38.5,31.7,15.6,0000.0,0014.09,0006.74,0006.04
2022-09-02 04:38:00,,0826.1,5.01,0.00,29.8,28.9,00.0,38.5,31.8,15.5,0000.0,0014.36,0006.73,0006.06
2022-09-02 04:39:00,,0826.0,5.01,0.00,29.9,29.0,00.0,38.5,31.8,15.4,0000.0,0014.33,0006.74,0006.06
2022-09-02 04:40:00,,0825.8,4.98,0.00,29.9,28.8,00.0,38.5,31.8,15.3,0000.0,0014.06,0006.72,0006.06
2022-09-02 04:41:00,,0825.9,5.01,0.00,29.9,27.4,00.0,38.5,31.6,15.2,0000.0,0013.73,0006.68,0006.06
2022-09-02 04:42:00,,0825.7,5.00,0.00,29.8,26.2,00.0,38.5,31.5,15.4,0000.0,0013.74,0006.66,0006.05
2022-09-02 04:43:00,,0825.7,4.99,0.00,29.7,26.2,00.0,38.4,31.4,15.4,0000.0,0013.66,0006.63,0006.05
2022-09-02 04:44:00,,0825.7,5.01,0.00,29.6,26.5,00.0,38.4,31.2,15.5,0000.0,0013.61,0006.62,0006.05
2022-09-02 04:45:00,,0825.7,5.00,0.00,29.6,26.9,00.0,38.4,31.2,15.6,0000.0,0013.62,0006.64,0006.05
2022-09-02 04:46:00,,0825.7,4.99,0.00,29.6,27.3,00.0,38.3,31.3,15.6,0000.0,0013.71,0006.63,0006.03
2022-09-02 04:47:00,,0825.7,5.01,0.00,29.5,27.6,00.0,38.3,31.3,15.5,0000.0,0013.02,0006.58,0006.03
2022-09-02 04:48:00,,0825.7,5.00,0.00,29.6,27.8,00.0,38.3,31.3,15.6,0000.0,0012.21,0006.52,0006.01
2022-09-02 04:49:00,,0825.7,5.01,0.00,29.6,28.0,00.0,38.3,31.4,15.6,0000.0,0012.41,0006.51,0006.00
2022-09-02 04:50:00,,0825.7,5.00,0.00,29.6,28.2,00.0,38.3,31.4,15.6,0000.0,0012.59,0006.49,0005.99
2022-09-02 04:51:00,,0825.8,4.99,0.00,29.6,28.3,00.0,38.3,31.4,15.4,0000.0,0012.47,0006.47,0005.98
2022-09-02 04:52:00,,0825.7,5.00,0.00,29.6,28.4,00.0,38.3,31.5,15.4,0000.0,0012.35,0006.45,0005.98
2022-09-02 04:53:00,,0825.7,5.01,0.00,29.7,28.5,00.0,38.4,31.5,15.4,0000.0,0011.96,0006.45,0005.98
2022-09-02 04:54:00,,0825.7,5.01,0.00,29.7,28.6,00.0,38.4,31.6,15.3,0000.0,0011.82,0006.46,0005.98
2022-09-02 04:55:00,,0825.7,4.98,0.00,29.7,28.7,00.0,38.4,31.6,15.3,0000.0,0011.91,0006.49,0006.00
2022-09-02 04:56:00,,0825.7,5.01,0.00,29.8,28.8,00.0,38.4,31.7,15.2,0000.0,0012.22,0006.50,0006.01
2022-09-02 04:57:00,,0825.7,5.01,0.00,29.8,28.8,00.0,38.5,31.7,15.1,0000.0,0012.23,0006.51,0006.03
2022-09-02 04:58:00,,0825.7,5.00,0.00,29.8,28.9,00.0,38.5,31.8,15.0,0000.0,0012.43,0006.54,0006.04
2022-09-02 04:59:00,,0825.7,4.99,0.00,29.9,28.9,00.0,38.5,31.8,15.0,0000.0,0012.07,0006.60,0006.07
